CES335 OIII-ZSSS

Flight info

Callsign CES335
Flight time N/A
Altitude 35000
Route DHN B451 BRD L720 RIKOP B114 POGON/K0891F350 L143 TISIB L141 MALEX/K0887F370 L141 KAMUD/K0885S1130 W186 SADAN W187 TUSLI W112 BILDA W619 JSG V67 ALGOT W199 NIRUV B215 LEBOM/K0880S1190 B215 GODON W87 AGVUR B208 HFE R343 SASAN SAS61A
Aircraft A346/H-SDE2E3FGHIJ3J4J5M1RWXY/LB1D1

Departure

Time N/A
Airport Mehrabad International Airport (OIII)

Arrival

Time 2026-05-04 03:36
Airport Shanghai Hongqiao International Airport (ZSSS)
Time Latitude Longitude Altitude Speed Heading
2026-05-04 03:19 31.58198 120.22846 11021 ft 384 kts 79°
2026-05-04 03:19 31.58604 120.25943 10773 ft 382 kts 79°
2026-05-04 03:20 31.58993 120.29020 10519 ft 380 kts 82°
2026-05-04 03:20 31.58866 120.32115 10262 ft 381 kts 98°
2026-05-04 03:20 31.58197 120.35132 10020 ft 381 kts 107°
2026-05-04 03:20 31.57289 120.38048 9830 ft 380 kts 109°
2026-05-04 03:21 31.56351 120.40948 9678 ft 377 kts 109°
2026-05-04 03:21 31.55449 120.43784 9485 ft 363 kts 109°
2026-05-04 03:21 31.54604 120.46510 9345 ft 348 kts 108°
2026-05-04 03:21 31.53805 120.49128 9181 ft 334 kts 108°
2026-05-04 03:22 31.53041 120.51656 9047 ft 322 kts 108°
2026-05-04 03:22 31.52317 120.54064 8892 ft 311 kts 108°
2026-05-04 03:22 31.51615 120.56408 8739 ft 299 kts 108°
2026-05-04 03:22 31.50928 120.58703 8615 ft 298 kts 107°
2026-05-04 03:23 31.50244 120.60989 8459 ft 298 kts 107°
2026-05-04 03:23 31.49560 120.63279 8311 ft 297 kts 108°
2026-05-04 03:23 31.48874 120.65561 8170 ft 297 kts 108°
2026-05-04 03:23 31.48190 120.67843 8039 ft 296 kts 107°
2026-05-04 03:24 31.47507 120.70120 7899 ft 296 kts 107°
2026-05-04 03:24 31.46826 120.72394 7754 ft 296 kts 107°
2026-05-04 03:24 31.46141 120.74671 7634 ft 295 kts 107°
2026-05-04 03:24 31.45457 120.76938 7467 ft 295 kts 107°
2026-05-04 03:25 31.44773 120.79209 7329 ft 295 kts 107°
2026-05-04 03:25 31.44091 120.81473 7160 ft 294 kts 107°
2026-05-04 03:25 31.43413 120.83735 7013 ft 294 kts 107°
2026-05-04 03:25 31.42734 120.85990 6777 ft 293 kts 107°
2026-05-04 03:26 31.42054 120.88240 6503 ft 291 kts 107°
2026-05-04 03:26 31.41386 120.90458 6195 ft 285 kts 107°
2026-05-04 03:26 31.40731 120.92627 5919 ft 279 kts 108°
2026-05-04 03:26 31.40161 120.94773 5649 ft 273 kts 101°
2026-05-04 03:27 31.39849 120.96943 5384 ft 268 kts 94°
2026-05-04 03:27 31.39690 120.99115 5133 ft 265 kts 92°
2026-05-04 03:27 31.39560 121.01264 4864 ft 262 kts 92°
2026-05-04 03:27 31.39431 121.03382 4589 ft 260 kts 92°
2026-05-04 03:28 31.39302 121.05486 4331 ft 258 kts 93°
2026-05-04 03:28 31.39164 121.07569 4051 ft 256 kts 94°
2026-05-04 03:28 31.39025 121.09649 3830 ft 255 kts 94°
2026-05-04 03:28 31.38886 121.11689 3549 ft 254 kts 94°
2026-05-04 03:29 31.38745 121.13781 3321 ft 254 kts 94°
2026-05-04 03:29 31.38608 121.15775 3185 ft 242 kts 94°
2026-05-04 03:29 31.38477 121.17722 3139 ft 235 kts 94°
2026-05-04 03:29 31.38347 121.19618 3112 ft 235 kts 95°
2026-05-04 03:30 31.38223 121.21518 3022 ft 234 kts 93°
2026-05-04 03:30 31.38193 121.23429 2846 ft 234 kts 89°
2026-05-04 03:30 31.38204 121.25305 2725 ft 224 kts 89°
2026-05-04 03:30 31.38219 121.27117 2586 ft 221 kts 89°
2026-05-04 03:31 31.38233 121.28927 2370 ft 222 kts 89°
2026-05-04 03:31 31.38244 121.30735 2096 ft 222 kts 91°
2026-05-04 03:31 31.37837 121.32442 1952 ft 217 kts 128°
2026-05-04 03:31 31.36682 121.33525 1995 ft 213 kts 164°
2026-05-04 03:32 31.35303 121.33642 1973 ft 188 kts 193°
2026-05-04 03:32 31.34107 121.33325 1993 ft 166 kts 195°
2026-05-04 03:32 31.33002 121.33119 2007 ft 157 kts 189°
2026-05-04 03:32 31.31921 121.33042 1988 ft 155 kts 185°
2026-05-04 03:33 31.30850 121.33034 1891 ft 155 kts 182°
2026-05-04 03:33 31.29831 121.33071 1703 ft 156 kts 181°
2026-05-04 03:33 31.28735 121.33131 1484 ft 157 kts 180°
2026-05-04 03:33 31.27649 121.33197 1273 ft 156 kts 181°
2026-05-04 03:34 31.26571 121.33258 1097 ft 154 kts 181°
2026-05-04 03:34 31.25505 121.33317 874 ft 152 kts 181°
2026-05-04 03:34 31.24448 121.33372 665 ft 153 kts 178°
2026-05-04 03:34 31.23371 121.33435 468 ft 155 kts 178°
2026-05-04 03:35 31.22292 121.33491 272 ft 155 kts 177°
2026-05-04 03:35 31.21213 121.33555 64 ft 155 kts 178°
2026-05-04 03:35 31.20195 121.33614 28 ft 126 kts 177°
2026-05-04 03:35 31.19548 121.33643 29 ft 58 kts 177°
2026-05-04 03:36 31.19296 121.33559 27 ft 30 kts 206°
2026-05-04 03:36 31.19267 121.33488 27 ft 9 kts 322°
2026-05-04 03:36 31.19342 121.33464 27 ft 13 kts 351°
2026-05-04 03:36 31.19444 121.33458 27 ft 16 kts 357°
2026-05-04 03:37 31.19571 121.33451 27 ft 20 kts 357°
2026-05-04 03:37 31.19718 121.33443 27 ft 18 kts 357°
2026-05-04 03:37 31.19818 121.33376 27 ft 18 kts 279°
2026-05-04 03:37 31.19818 121.33216 28 ft 21 kts 267°
2026-05-04 03:38 31.19784 121.33074 27 ft 15 kts 203°
2026-05-04 03:38 31.19663 121.33064 27 ft 19 kts 176°
2026-05-04 03:38 31.19590 121.32989 27 ft 16 kts 264°
2026-05-04 03:38 31.19579 121.32845 27 ft 19 kts 267°
2026-05-04 03:39 31.19595 121.32689 27 ft 16 kts 304°
2026-05-04 03:39 31.19602 121.32670 27 ft 0 kts 277°
2026-05-04 03:39 31.19602 121.32663 27 ft 2 kts 265°
2026-05-04 03:39 31.19597 121.32610 27 ft 10 kts 266°